GLO1786 SBBR-SBEG

Flight info

Callsign GLO1786
Flight time 2h 36m
Altitude 38000
Route UGUGA UM409 NEMEL DCT IRUMO
Aircraft B737/M-SDE2E3FGHIRWXY/LB1

Departure

Time 2026-04-21 07:39
Airport Presidente Juscelino Kubitschek International Airport (SBBR)

Arrival

Time 2026-04-21 10:15
Airport Eduardo Gomes International Airport (SBEG)
Time Latitude Longitude Altitude Speed Heading
2026-04-21 07:04 -15.87059 -47.91994 3472 ft 0 kts 258°
2026-04-21 07:27 -15.87057 -47.91983 3473 ft 4 kts 261°
2026-04-21 07:27 -15.87055 -47.91955 3474 ft 4 kts 278°
2026-04-21 07:27 -15.87063 -47.91932 3474 ft 4 kts 324°
2026-04-21 07:27 -15.87076 -47.91926 3474 ft 1 kts 356°
2026-04-21 07:28 -15.87078 -47.91926 3474 ft 0 kts 356°
2026-04-21 07:31 -15.87066 -47.91927 3475 ft 6 kts 356°
2026-04-21 07:31 -15.87021 -47.91905 3473 ft 10 kts 81°
2026-04-21 07:32 -15.87015 -47.91818 3474 ft 12 kts 86°
2026-04-21 07:32 -15.87009 -47.91730 3476 ft 12 kts 86°
2026-04-21 07:32 -15.87052 -47.91662 3476 ft 12 kts 107°
2026-04-21 07:32 -15.87077 -47.91593 3472 ft 10 kts 159°
2026-04-21 07:33 -15.87162 -47.91584 3472 ft 17 kts 176°
2026-04-21 07:33 -15.87309 -47.91575 3469 ft 20 kts 176°
2026-04-21 07:33 -15.87450 -47.91565 3469 ft 19 kts 177°
2026-04-21 07:33 -15.87597 -47.91555 3457 ft 21 kts 176°
2026-04-21 07:34 -15.87726 -47.91574 3455 ft 18 kts 234°
2026-04-21 07:34 -15.87739 -47.91701 3459 ft 20 kts 266°
2026-04-21 07:34 -15.87750 -47.91868 3462 ft 27 kts 266°
2026-04-21 07:34 -15.87763 -47.92059 3462 ft 26 kts 266°
2026-04-21 07:35 -15.87774 -47.92239 3467 ft 24 kts 266°
2026-04-21 07:35 -15.87785 -47.92417 3470 ft 26 kts 266°
2026-04-21 07:35 -15.87798 -47.92613 3471 ft 29 kts 266°
2026-04-21 07:35 -15.87811 -47.92825 3474 ft 30 kts 266°
2026-04-21 07:36 -15.87824 -47.93035 3474 ft 28 kts 266°
2026-04-21 07:36 -15.87837 -47.93231 3479 ft 26 kts 266°
2026-04-21 07:36 -15.87848 -47.93415 3482 ft 25 kts 266°
2026-04-21 07:36 -15.87860 -47.93586 3495 ft 23 kts 266°
2026-04-21 07:37 -15.87870 -47.93749 3501 ft 22 kts 266°
2026-04-21 07:37 -15.87879 -47.93908 3509 ft 22 kts 266°
2026-04-21 07:37 -15.87968 -47.93999 3513 ft 21 kts 178°
2026-04-21 07:37 -15.88064 -47.93920 3513 ft 21 kts 88°
2026-04-21 07:38 -15.88051 -47.93752 3500 ft 25 kts 86°
2026-04-21 07:38 -15.88026 -47.93361 3480 ft 91 kts 86°
2026-04-21 07:38 -15.87968 -47.92470 3474 ft 153 kts 86°
2026-04-21 07:38 -15.87887 -47.91268 3823 ft 173 kts 86°
2026-04-21 07:39 -15.87805 -47.90019 4664 ft 166 kts 86°
2026-04-21 07:39 -15.87734 -47.88849 5593 ft 163 kts 85°
2026-04-21 07:39 -15.87658 -47.87614 6063 ft 184 kts 86°
2026-04-21 07:39 -15.87571 -47.86198 6469 ft 207 kts 86°
2026-04-21 07:40 -15.87474 -47.84615 6808 ft 228 kts 86°
2026-04-21 07:40 -15.87374 -47.82947 7373 ft 241 kts 86°
2026-04-21 07:40 -15.87263 -47.81095 7546 ft 272 kts 86°
2026-04-21 07:40 -15.87137 -47.79097 8289 ft 280 kts 84°
2026-04-21 07:41 -15.86577 -47.77161 9166 ft 284 kts 59°
2026-04-21 07:41 -15.85245 -47.75643 10081 ft 289 kts 36°
2026-04-21 07:41 -15.83391 -47.74818 10840 ft 297 kts 10°
2026-04-21 07:41 -15.81299 -47.74860 11426 ft 313 kts 347°
2026-04-21 07:42 -15.79170 -47.75676 11682 ft 338 kts 336°
2026-04-21 07:42 -15.76992 -47.76711 12283 ft 348 kts 336°
2026-04-21 07:42 -15.74772 -47.77759 13056 ft 354 kts 336°
2026-04-21 07:42 -15.72500 -47.78801 13850 ft 359 kts 337°
2026-04-21 07:43 -15.70277 -47.79999 14503 ft 365 kts 322°
2026-04-21 07:43 -15.68549 -47.81930 14943 ft 369 kts 301°
2026-04-21 07:43 -15.67673 -47.84384 15044 ft 362 kts 278°
2026-04-21 07:43 -15.67527 -47.87002 15631 ft 365 kts 269°
2026-04-21 07:44 -15.67533 -47.89641 16438 ft 366 kts 268°
2026-04-21 07:44 -15.67561 -47.92284 17217 ft 368 kts 268°
2026-04-21 07:44 -15.67585 -47.94955 17912 ft 373 kts 268°
2026-04-21 07:44 -15.67599 -47.97666 18539 ft 377 kts 269°
2026-04-21 07:45 -15.67603 -48.00398 19133 ft 381 kts 269°
2026-04-21 07:45 -15.67601 -48.03155 19745 ft 383 kts 268°
2026-04-21 07:45 -15.67594 -48.05934 20340 ft 386 kts 268°
2026-04-21 07:45 -15.67585 -48.08732 20943 ft 389 kts 268°
2026-04-21 07:46 -15.67579 -48.10594 21341 ft 391 kts 268°
2026-04-21 07:46 -15.67570 -48.13425 21936 ft 394 kts 268°
2026-04-21 07:46 -15.67561 -48.16279 22516 ft 397 kts 268°
2026-04-21 07:46 -15.67552 -48.19149 23092 ft 400 kts 268°
2026-04-21 07:47 -15.67543 -48.22044 23644 ft 403 kts 267°
2026-04-21 07:47 -15.67535 -48.24963 24071 ft 407 kts 267°
2026-04-21 07:47 -15.67527 -48.27908 24497 ft 410 kts 267°
2026-04-21 07:47 -15.67519 -48.30877 24946 ft 413 kts 267°
2026-04-21 07:48 -15.67509 -48.33867 25406 ft 415 kts 267°
2026-04-21 07:48 -15.67446 -48.36871 25832 ft 420 kts 274°
2026-04-21 07:48 -15.66630 -48.39813 26211 ft 432 kts 294°
2026-04-21 07:48 -15.64951 -48.42412 26666 ft 439 kts 310°
2026-04-21 07:49 -15.62581 -48.44443 27086 ft 446 kts 322°
2026-04-21 07:49 -15.60003 -48.46269 27434 ft 451 kts 324°
2026-04-21 07:49 -15.57364 -48.48066 27803 ft 455 kts 324°
2026-04-21 07:49 -15.54703 -48.49865 28201 ft 458 kts 324°
2026-04-21 07:50 -15.52037 -48.51677 28602 ft 460 kts 324°
2026-04-21 07:50 -15.49358 -48.53516 28972 ft 463 kts 324°
2026-04-21 07:50 -15.46676 -48.55373 29331 ft 465 kts 323°
2026-04-21 07:50 -15.43978 -48.57252 29685 ft 468 kts 323°
2026-04-21 07:51 -15.41271 -48.59144 30031 ft 471 kts 323°
2026-04-21 07:51 -15.38543 -48.61052 30330 ft 473 kts 323°
2026-04-21 07:51 -15.35809 -48.62965 30626 ft 476 kts 323°
2026-04-21 07:51 -15.33060 -48.64888 30915 ft 478 kts 323°
2026-04-21 07:52 -15.30299 -48.66818 31217 ft 479 kts 323°
2026-04-21 07:52 -15.27540 -48.68746 31621 ft 478 kts 323°
2026-04-21 07:52 -15.24786 -48.70668 32085 ft 476 kts 323°
2026-04-21 07:52 -15.22048 -48.72577 32536 ft 474 kts 324°
2026-04-21 07:53 -15.19314 -48.74484 32947 ft 473 kts 324°
2026-04-21 07:53 -15.16584 -48.76389 33344 ft 473 kts 324°
2026-04-21 07:53 -15.13856 -48.78291 33754 ft 473 kts 324°
2026-04-21 07:53 -15.11126 -48.80194 34086 ft 474 kts 324°
2026-04-21 07:54 -15.08401 -48.82094 34413 ft 473 kts 324°
2026-04-21 07:54 -15.05666 -48.83998 34775 ft 472 kts 323°
2026-04-21 07:54 -15.02982 -48.85867 35127 ft 470 kts 323°
2026-04-21 07:54 -15.00273 -48.87753 35438 ft 470 kts 323°
2026-04-21 07:55 -14.97556 -48.89644 35729 ft 470 kts 323°
2026-04-21 07:55 -14.94842 -48.91533 36043 ft 470 kts 323°
2026-04-21 07:55 -14.92139 -48.93413 36364 ft 468 kts 323°
2026-04-21 07:55 -14.89430 -48.95296 36628 ft 469 kts 323°
2026-04-21 07:56 -14.86727 -48.97175 36838 ft 470 kts 323°
2026-04-21 07:56 -14.84007 -48.99066 37115 ft 469 kts 323°
2026-04-21 07:56 -14.81304 -49.00943 37423 ft 468 kts 323°
2026-04-21 07:56 -14.78602 -49.02819 37733 ft 466 kts 323°
2026-04-21 07:57 -14.75914 -49.04685 37974 ft 467 kts 323°
2026-04-21 07:57 -14.73204 -49.06567 37950 ft 471 kts 323°
2026-04-21 07:57 -14.67758 -49.10345 37951 ft 471 kts 323°
2026-04-21 07:58 -14.62357 -49.14088 37957 ft 465 kts 322°
2026-04-21 07:58 -14.56997 -49.17801 37963 ft 464 kts 322°
2026-04-21 07:59 -14.51646 -49.21507 37958 ft 463 kts 322°
2026-04-21 07:59 -14.46304 -49.25205 37958 ft 462 kts 322°
2026-04-21 08:00 -14.40963 -49.28900 37962 ft 462 kts 322°
2026-04-21 08:00 -14.35617 -49.32595 37962 ft 463 kts 322°
2026-04-21 08:01 -14.30261 -49.36296 37949 ft 464 kts 323°
2026-04-21 08:02 -14.22208 -49.41856 37951 ft 465 kts 323°
2026-04-21 08:02 -14.16832 -49.45564 37942 ft 466 kts 323°
2026-04-21 08:03 -14.11443 -49.49281 37949 ft 466 kts 323°
2026-04-21 08:03 -14.06084 -49.52974 37936 ft 467 kts 323°
2026-04-21 08:04 -14.00750 -49.56841 37938 ft 464 kts 317°
2026-04-21 08:04 -13.95885 -49.61195 37942 ft 463 kts 314°
2026-04-21 08:05 -13.91137 -49.65606 37939 ft 463 kts 314°
2026-04-21 08:05 -13.86274 -49.70026 37936 ft 463 kts 315°
2026-04-21 08:06 -13.81408 -49.74377 37937 ft 463 kts 315°
2026-04-21 08:06 -13.76568 -49.78685 37940 ft 463 kts 315°
2026-04-21 08:07 -13.71704 -49.83014 37934 ft 462 kts 315°
2026-04-21 08:07 -13.66843 -49.87340 37938 ft 462 kts 315°
2026-04-21 08:08 -13.61988 -49.91661 37933 ft 461 kts 315°
2026-04-21 08:08 -13.57134 -49.95977 37935 ft 461 kts 315°
2026-04-21 08:09 -13.52285 -50.00287 37937 ft 461 kts 315°
2026-04-21 08:09 -13.47439 -50.04592 37937 ft 461 kts 315°
2026-04-21 08:10 -13.42591 -50.08896 37937 ft 461 kts 315°
2026-04-21 08:10 -13.37741 -50.13200 37940 ft 461 kts 315°
2026-04-21 08:11 -13.32889 -50.17503 37937 ft 461 kts 315°
2026-04-21 08:11 -13.28031 -50.21809 37931 ft 461 kts 315°
2026-04-21 08:12 -13.23173 -50.26114 37935 ft 461 kts 316°
2026-04-21 08:12 -13.18313 -50.30417 37933 ft 461 kts 316°
2026-04-21 08:13 -13.13450 -50.34720 37933 ft 462 kts 316°
2026-04-21 08:13 -13.08588 -50.39021 37929 ft 462 kts 316°
2026-04-21 08:14 -13.03724 -50.43324 37933 ft 462 kts 316°
2026-04-21 08:14 -12.98855 -50.47629 37934 ft 462 kts 316°
2026-04-21 08:15 -12.93990 -50.51928 37931 ft 462 kts 316°
2026-04-21 08:15 -12.89125 -50.56224 37935 ft 462 kts 316°
2026-04-21 08:16 -12.84291 -50.60492 37934 ft 462 kts 316°
2026-04-21 08:16 -12.79424 -50.64785 37934 ft 462 kts 316°
2026-04-21 08:17 -12.74564 -50.69071 37935 ft 461 kts 316°
2026-04-21 08:17 -12.69695 -50.73362 37931 ft 461 kts 316°
2026-04-21 08:18 -12.64832 -50.77645 37929 ft 461 kts 316°
2026-04-21 08:18 -12.59967 -50.81928 37928 ft 461 kts 316°
2026-04-21 08:19 -12.55108 -50.86204 37928 ft 461 kts 316°
2026-04-21 08:19 -12.50250 -50.90477 37927 ft 460 kts 316°
2026-04-21 08:20 -12.45388 -50.94751 37929 ft 460 kts 316°
2026-04-21 08:20 -12.40534 -50.99016 37929 ft 460 kts 316°
2026-04-21 08:21 -12.35673 -51.03285 37931 ft 460 kts 316°
2026-04-21 08:21 -12.30813 -51.07552 37935 ft 460 kts 316°
2026-04-21 08:22 -12.25952 -51.11817 37934 ft 460 kts 317°
2026-04-21 08:22 -12.21124 -51.16050 37937 ft 460 kts 317°
2026-04-21 08:23 -12.16260 -51.20314 37935 ft 460 kts 317°
2026-04-21 08:23 -12.11398 -51.24574 37936 ft 461 kts 317°
2026-04-21 08:24 -12.06535 -51.28835 37940 ft 461 kts 317°
2026-04-21 08:24 -12.01666 -51.33099 37934 ft 461 kts 317°
2026-04-21 08:25 -11.96797 -51.37362 37943 ft 461 kts 317°
2026-04-21 08:25 -11.91931 -51.41619 37939 ft 461 kts 317°
2026-04-21 08:26 -11.87058 -51.45881 37944 ft 461 kts 317°
2026-04-21 08:26 -11.82192 -51.50135 37939 ft 461 kts 317°
2026-04-21 08:27 -11.77324 -51.54388 37943 ft 461 kts 317°
2026-04-21 08:27 -11.72454 -51.58641 37936 ft 461 kts 317°
2026-04-21 08:28 -11.67589 -51.62887 37946 ft 460 kts 317°
2026-04-21 08:28 -11.62720 -51.67135 37945 ft 460 kts 317°
2026-04-21 08:29 -11.57852 -51.71380 37946 ft 460 kts 317°
2026-04-21 08:29 -11.52989 -51.75619 37950 ft 460 kts 317°
2026-04-21 08:30 -11.48119 -51.79862 37938 ft 460 kts 317°
2026-04-21 08:30 -11.43256 -51.84097 37948 ft 460 kts 317°
2026-04-21 08:31 -11.38389 -51.88334 37945 ft 460 kts 317°
2026-04-21 08:31 -11.33524 -51.92568 37945 ft 460 kts 317°
2026-04-21 08:32 -11.28659 -51.96799 37949 ft 460 kts 317°
2026-04-21 08:32 -11.23788 -52.00973 37947 ft 461 kts 318°
2026-04-21 08:33 -11.18856 -52.05139 37944 ft 461 kts 318°
2026-04-21 08:33 -11.13923 -52.09308 37947 ft 461 kts 318°
2026-04-21 08:34 -11.09789 -52.12807 37948 ft 462 kts 318°
2026-04-21 08:34 -11.04849 -52.16992 37948 ft 462 kts 318°
2026-04-21 08:35 -10.99905 -52.21179 37948 ft 462 kts 318°
2026-04-21 08:35 -10.94964 -52.25362 37955 ft 462 kts 318°
2026-04-21 08:36 -10.90014 -52.29550 37957 ft 463 kts 319°
2026-04-21 08:36 -10.85097 -52.33708 37947 ft 463 kts 319°
2026-04-21 08:37 -10.80150 -52.37890 37965 ft 463 kts 319°
2026-04-21 08:37 -10.75200 -52.42073 37949 ft 462 kts 319°
2026-04-21 08:38 -10.70250 -52.46253 37945 ft 462 kts 319°
2026-04-21 08:38 -10.65310 -52.50424 37947 ft 462 kts 319°
2026-04-21 08:39 -10.60368 -52.54593 37959 ft 461 kts 319°
2026-04-21 08:39 -10.55435 -52.58754 37949 ft 461 kts 319°
2026-04-21 08:40 -10.50499 -52.62916 37943 ft 460 kts 319°
2026-04-21 08:40 -10.45573 -52.67067 37958 ft 460 kts 319°
2026-04-21 08:41 -10.40649 -52.71215 37948 ft 460 kts 319°
2026-04-21 08:41 -10.35725 -52.75361 37953 ft 459 kts 319°
2026-04-21 08:42 -10.30807 -52.79501 37947 ft 459 kts 319°
2026-04-21 08:42 -10.25886 -52.83641 37959 ft 459 kts 319°
2026-04-21 08:43 -10.20967 -52.87778 37954 ft 459 kts 320°
2026-04-21 08:43 -10.16053 -52.91909 37960 ft 459 kts 320°
2026-04-21 08:44 -10.11132 -52.96045 37952 ft 459 kts 320°
2026-04-21 08:44 -10.06213 -53.00177 37958 ft 459 kts 320°
2026-04-21 08:45 -10.01297 -53.04305 37953 ft 459 kts 320°
2026-04-21 08:45 -9.96406 -53.08411 37955 ft 459 kts 320°
2026-04-21 08:46 -9.91483 -53.12541 37955 ft 459 kts 320°
2026-04-21 08:46 -9.86682 -53.16824 37968 ft 459 kts 316°
2026-04-21 08:47 -9.82010 -53.21243 37956 ft 460 kts 316°
2026-04-21 08:47 -9.77319 -53.25663 37962 ft 460 kts 317°
2026-04-21 08:48 -9.72611 -53.30058 37961 ft 460 kts 317°
2026-04-21 08:48 -9.67896 -53.34447 37964 ft 460 kts 317°
2026-04-21 08:49 -9.63174 -53.38841 37960 ft 461 kts 317°
2026-04-21 08:49 -9.58460 -53.43229 37957 ft 461 kts 317°
2026-04-21 08:50 -9.53738 -53.47620 37962 ft 461 kts 317°
2026-04-21 08:50 -9.49010 -53.52004 37970 ft 461 kts 317°
2026-04-21 08:51 -9.44281 -53.56384 37971 ft 461 kts 317°
2026-04-21 08:51 -9.39553 -53.60762 37959 ft 460 kts 317°
2026-04-21 08:52 -9.34827 -53.65139 37970 ft 460 kts 317°
2026-04-21 08:52 -9.30098 -53.69518 37964 ft 460 kts 317°
2026-04-21 08:53 -9.25374 -53.73890 37966 ft 460 kts 317°
2026-04-21 08:53 -9.20682 -53.78231 37969 ft 460 kts 317°
2026-04-21 08:54 -9.15962 -53.82596 37971 ft 460 kts 317°
2026-04-21 08:54 -9.11244 -53.86958 37960 ft 459 kts 317°
2026-04-21 08:55 -9.06529 -53.91316 37965 ft 458 kts 317°
2026-04-21 08:55 -9.01825 -53.95661 37968 ft 457 kts 317°
2026-04-21 08:56 -8.97132 -53.99995 37968 ft 457 kts 317°
2026-04-21 08:56 -8.92443 -54.04323 37963 ft 456 kts 317°
2026-04-21 08:57 -8.87760 -54.08645 37970 ft 455 kts 317°
2026-04-21 08:57 -8.83080 -54.12962 37966 ft 455 kts 317°
2026-04-21 08:58 -8.78406 -54.17271 37968 ft 455 kts 317°
2026-04-21 08:58 -8.73732 -54.21580 37972 ft 454 kts 318°
2026-04-21 08:59 -8.69064 -54.25882 37965 ft 455 kts 318°
2026-04-21 08:59 -8.64390 -54.30187 37968 ft 455 kts 318°
2026-04-21 09:00 -8.59712 -54.34495 37969 ft 455 kts 318°
2026-04-21 09:00 -8.55035 -54.38800 37966 ft 455 kts 318°
2026-04-21 09:01 -8.50359 -54.43102 37968 ft 455 kts 318°
2026-04-21 09:01 -8.45678 -54.47408 37960 ft 455 kts 318°
2026-04-21 09:02 -8.40999 -54.51711 37964 ft 455 kts 318°
2026-04-21 09:02 -8.36320 -54.56012 37959 ft 455 kts 318°
2026-04-21 09:03 -8.29303 -54.62459 37964 ft 455 kts 319°
2026-04-21 09:03 -8.24658 -54.66725 37961 ft 454 kts 319°
2026-04-21 09:04 -8.19986 -54.71016 37961 ft 454 kts 319°
2026-04-21 09:04 -8.15318 -54.75300 37957 ft 453 kts 319°
2026-04-21 09:05 -8.10654 -54.79580 37959 ft 453 kts 319°
2026-04-21 09:05 -8.05964 -54.83881 37954 ft 452 kts 319°
2026-04-21 09:06 -8.01341 -54.88120 37956 ft 452 kts 319°
2026-04-21 09:06 -7.96691 -54.92383 37955 ft 452 kts 319°
2026-04-21 09:07 -7.92044 -54.96642 37958 ft 451 kts 319°
2026-04-21 09:07 -7.87395 -55.00900 37957 ft 451 kts 319°
2026-04-21 09:08 -7.82718 -55.05184 37957 ft 451 kts 319°
2026-04-21 09:08 -7.78104 -55.09408 37959 ft 451 kts 319°
2026-04-21 09:09 -7.73457 -55.13660 37955 ft 451 kts 319°
2026-04-21 09:09 -7.68811 -55.17912 37956 ft 451 kts 319°
2026-04-21 09:10 -7.64157 -55.22168 37961 ft 452 kts 319°
2026-04-21 09:10 -7.59499 -55.26428 37957 ft 452 kts 319°
2026-04-21 09:11 -7.54845 -55.30682 37958 ft 452 kts 319°
2026-04-21 09:11 -7.50184 -55.34943 37959 ft 452 kts 319°
2026-04-21 09:12 -7.45530 -55.39195 37956 ft 452 kts 319°
2026-04-21 09:12 -7.40902 -55.43468 37958 ft 451 kts 315°
2026-04-21 09:13 -7.37013 -55.48428 37957 ft 452 kts 307°
2026-04-21 09:13 -7.33365 -55.53582 37965 ft 451 kts 307°
2026-04-21 09:14 -7.29714 -55.58719 37956 ft 451 kts 307°
2026-04-21 09:14 -7.26033 -55.63838 37956 ft 451 kts 307°
2026-04-21 09:15 -7.22347 -55.68936 37955 ft 450 kts 307°
2026-04-21 09:15 -7.18663 -55.74023 37967 ft 449 kts 307°
2026-04-21 09:16 -7.14985 -55.79100 37962 ft 449 kts 307°
2026-04-21 09:16 -7.11303 -55.84183 37962 ft 449 kts 307°
2026-04-21 09:17 -7.07618 -55.89269 37959 ft 449 kts 307°
2026-04-21 09:17 -7.03934 -55.94352 37963 ft 450 kts 307°
2026-04-21 09:18 -7.00245 -55.99440 37961 ft 450 kts 307°
2026-04-21 09:18 -6.96555 -56.04529 37964 ft 450 kts 307°
2026-04-21 09:19 -6.93486 -56.08760 37961 ft 450 kts 307°
2026-04-21 09:19 -6.89194 -56.14675 37962 ft 451 kts 307°
2026-04-21 09:20 -6.85493 -56.19774 37962 ft 451 kts 307°
2026-04-21 09:20 -6.82391 -56.24046 37964 ft 451 kts 307°
2026-04-21 09:21 -6.78689 -56.29143 37962 ft 452 kts 307°
2026-04-21 09:21 -6.74981 -56.34247 37957 ft 452 kts 307°
2026-04-21 09:22 -6.71291 -56.39326 37965 ft 452 kts 307°
2026-04-21 09:22 -6.67575 -56.44438 37962 ft 453 kts 307°
2026-04-21 09:23 -6.63853 -56.49557 37964 ft 453 kts 307°
2026-04-21 09:23 -6.60129 -56.54676 37966 ft 454 kts 307°
2026-04-21 09:24 -6.56403 -56.59798 37951 ft 454 kts 307°
2026-04-21 09:24 -6.52671 -56.64926 37963 ft 454 kts 307°
2026-04-21 09:25 -6.48934 -56.70060 37967 ft 455 kts 307°
2026-04-21 09:25 -6.45197 -56.75192 37964 ft 455 kts 307°
2026-04-21 09:26 -6.41457 -56.80327 37963 ft 455 kts 307°
2026-04-21 09:26 -6.37714 -56.85464 37969 ft 456 kts 308°
2026-04-21 09:27 -6.33967 -56.90605 37963 ft 456 kts 308°
2026-04-21 09:27 -6.30218 -56.95748 37962 ft 456 kts 308°
2026-04-21 09:28 -6.26470 -57.00889 37964 ft 456 kts 308°
2026-04-21 09:28 -6.22718 -57.06032 37963 ft 456 kts 308°
2026-04-21 09:29 -6.18969 -57.11171 37955 ft 456 kts 308°
2026-04-21 09:29 -6.15214 -57.16316 37957 ft 456 kts 308°
2026-04-21 09:30 -6.11459 -57.21460 37961 ft 457 kts 308°
2026-04-21 09:30 -6.07700 -57.26608 37959 ft 457 kts 308°
2026-04-21 09:31 -6.03936 -57.31761 37958 ft 457 kts 308°
2026-04-21 09:31 -6.00178 -57.36904 37954 ft 457 kts 308°
2026-04-21 09:32 -5.96415 -57.42054 37953 ft 457 kts 308°
2026-04-21 09:32 -5.92653 -57.47201 37957 ft 457 kts 308°
2026-04-21 09:33 -5.88888 -57.52349 37955 ft 457 kts 308°
2026-04-21 09:33 -5.85125 -57.57495 37959 ft 457 kts 308°
2026-04-21 09:34 -5.81356 -57.62647 37960 ft 457 kts 308°
2026-04-21 09:34 -5.77615 -57.67759 37953 ft 458 kts 308°
2026-04-21 09:35 -5.73843 -57.72913 37963 ft 458 kts 308°
2026-04-21 09:35 -5.70070 -57.78067 37955 ft 459 kts 308°
2026-04-21 09:36 -5.66288 -57.83232 37961 ft 459 kts 308°
2026-04-21 09:36 -5.62500 -57.88403 37960 ft 460 kts 308°
2026-04-21 09:37 -5.58714 -57.93571 37962 ft 460 kts 308°
2026-04-21 09:37 -5.54919 -57.98749 37960 ft 460 kts 308°
2026-04-21 09:38 -5.51124 -58.03926 37961 ft 461 kts 308°
2026-04-21 09:38 -5.47326 -58.09106 37954 ft 461 kts 308°
2026-04-21 09:39 -5.43527 -58.14287 37959 ft 461 kts 308°
2026-04-21 09:39 -5.39725 -58.19469 37958 ft 461 kts 308°
2026-04-21 09:40 -5.35927 -58.24646 37956 ft 460 kts 308°
2026-04-21 09:40 -5.32132 -58.29817 37957 ft 460 kts 308°
2026-04-21 09:41 -5.28336 -58.34989 37954 ft 460 kts 308°
2026-04-21 09:41 -5.24543 -58.40154 37955 ft 459 kts 308°
2026-04-21 09:42 -5.20759 -58.45307 37954 ft 459 kts 308°
2026-04-21 09:42 -5.16969 -58.50465 37948 ft 459 kts 308°
2026-04-21 09:43 -5.13202 -58.55592 37955 ft 459 kts 308°
2026-04-21 09:43 -5.09388 -58.60782 37955 ft 460 kts 308°
2026-04-21 09:44 -5.05617 -58.65912 37957 ft 460 kts 308°
2026-04-21 09:44 -5.01813 -58.71085 37956 ft 461 kts 308°
2026-04-21 09:45 -4.98011 -58.76255 37958 ft 461 kts 308°
2026-04-21 09:45 -4.94204 -58.81431 37953 ft 462 kts 308°
2026-04-21 09:46 -4.90387 -58.86618 37958 ft 462 kts 308°
2026-04-21 09:46 -4.86571 -58.91803 37961 ft 462 kts 308°
2026-04-21 09:47 -4.82728 -58.97025 37952 ft 462 kts 308°
2026-04-21 09:47 -4.78909 -59.02212 37955 ft 462 kts 308°
2026-04-21 09:48 -4.75085 -59.07404 37742 ft 465 kts 308°
2026-04-21 09:48 -4.73158 -59.10020 37232 ft 465 kts 308°
2026-04-21 09:48 -4.71265 -59.12591 36673 ft 464 kts 308°
2026-04-21 09:49 -4.69324 -59.15226 36178 ft 461 kts 308°
2026-04-21 09:49 -4.67457 -59.17761 35765 ft 457 kts 308°
2026-04-21 09:49 -4.65575 -59.20317 35327 ft 453 kts 308°
2026-04-21 09:49 -4.63709 -59.22849 34902 ft 450 kts 308°
2026-04-21 09:50 -4.61859 -59.25360 34491 ft 446 kts 308°
2026-04-21 09:50 -4.60018 -59.27858 34072 ft 444 kts 308°
2026-04-21 09:50 -4.58192 -59.30335 33585 ft 442 kts 308°
2026-04-21 09:50 -4.56370 -59.32806 33134 ft 438 kts 308°
2026-04-21 09:51 -4.54565 -59.35254 32688 ft 435 kts 308°
2026-04-21 09:51 -4.52775 -59.37682 32266 ft 432 kts 308°
2026-04-21 09:51 -4.50998 -59.40092 31850 ft 429 kts 308°
2026-04-21 09:51 -4.49233 -59.42486 31433 ft 425 kts 308°
2026-04-21 09:52 -4.47482 -59.44859 31024 ft 422 kts 308°
2026-04-21 09:52 -4.45739 -59.47223 30620 ft 420 kts 307°
2026-04-21 09:52 -4.44010 -59.49567 30213 ft 417 kts 307°
2026-04-21 09:52 -4.42292 -59.51895 29754 ft 414 kts 307°
2026-04-21 09:53 -4.40586 -59.54207 29286 ft 411 kts 307°
2026-04-21 09:53 -4.38896 -59.56497 28827 ft 407 kts 307°
2026-04-21 09:53 -4.37224 -59.58764 28385 ft 403 kts 308°
2026-04-21 09:53 -4.35563 -59.61014 27931 ft 400 kts 308°
2026-04-21 09:54 -4.33918 -59.63244 27516 ft 396 kts 308°
2026-04-21 09:54 -4.32287 -59.65454 27088 ft 393 kts 308°
2026-04-21 09:54 -4.30669 -59.67646 26664 ft 390 kts 308°
2026-04-21 09:54 -4.29057 -59.69829 26237 ft 388 kts 308°
2026-04-21 09:55 -4.27461 -59.71990 25816 ft 385 kts 307°
2026-04-21 09:55 -4.25871 -59.74143 25391 ft 383 kts 307°
2026-04-21 09:55 -4.24289 -59.76286 24956 ft 381 kts 307°
2026-04-21 09:55 -4.22719 -59.78413 24525 ft 380 kts 307°
2026-04-21 09:56 -4.21150 -59.80538 24081 ft 379 kts 307°
2026-04-21 09:56 -4.19586 -59.82655 23642 ft 378 kts 307°
2026-04-21 09:56 -4.18026 -59.84768 23145 ft 376 kts 307°
2026-04-21 09:56 -4.16478 -59.86864 22681 ft 373 kts 307°
2026-04-21 09:57 -4.14940 -59.88947 22240 ft 370 kts 307°
2026-04-21 09:57 -4.13420 -59.91003 21807 ft 366 kts 307°
2026-04-21 09:57 -4.11876 -59.93018 21376 ft 363 kts 314°
2026-04-21 09:57 -4.09861 -59.94498 20946 ft 359 kts 336°
2026-04-21 09:58 -4.07490 -59.95192 20549 ft 353 kts 355°
2026-04-21 09:58 -4.05054 -59.95179 20161 ft 349 kts
2026-04-21 09:58 -4.02638 -59.94977 19731 ft 347 kts
2026-04-21 09:58 -4.00241 -59.94737 19314 ft 346 kts
2026-04-21 09:59 -3.97852 -59.94494 18890 ft 345 kts
2026-04-21 09:59 -3.95469 -59.94260 18465 ft 344 kts
2026-04-21 09:59 -3.93091 -59.94036 18000 ft 343 kts
2026-04-21 09:59 -3.90714 -59.93819 17557 ft 341 kts
2026-04-21 10:00 -3.88361 -59.93609 17123 ft 339 kts
2026-04-21 10:00 -3.86020 -59.93402 16704 ft 336 kts
2026-04-21 10:00 -3.83699 -59.93199 16291 ft 334 kts
2026-04-21 10:00 -3.81392 -59.92997 15882 ft 331 kts
2026-04-21 10:01 -3.79102 -59.92797 15478 ft 329 kts
2026-04-21 10:01 -3.76826 -59.92599 15072 ft 327 kts
2026-04-21 10:01 -3.74563 -59.92401 14661 ft 326 kts
2026-04-21 10:01 -3.72311 -59.92205 14251 ft 325 kts
2026-04-21 10:02 -3.67820 -59.91813 13380 ft 322 kts
2026-04-21 10:02 -3.65622 -59.91622 12958 ft 320 kts
2026-04-21 10:02 -3.63414 -59.91429 12541 ft 318 kts
2026-04-21 10:03 -3.61216 -59.91237 12134 ft 315 kts
2026-04-21 10:03 -3.59039 -59.91048 11728 ft 313 kts
2026-04-21 10:03 -3.56874 -59.90859 11323 ft 311 kts
2026-04-21 10:03 -3.54693 -59.90669 10891 ft 310 kts
2026-04-21 10:04 -3.52575 -59.90484 10491 ft 309 kts
2026-04-21 10:04 -3.50437 -59.90298 10108 ft 307 kts
2026-04-21 10:04 -3.48342 -59.90115 9814 ft 301 kts
2026-04-21 10:04 -3.46263 -59.89934 9429 ft 299 kts
2026-04-21 10:05 -3.44199 -59.89754 9043 ft 296 kts
2026-04-21 10:05 -3.42156 -59.89576 8670 ft 294 kts
2026-04-21 10:05 -3.40809 -59.89458 8423 ft 292 kts
2026-04-21 10:05 -3.38794 -59.89283 8057 ft 290 kts
2026-04-21 10:06 -3.36801 -59.89109 7797 ft 284 kts
2026-04-21 10:06 -3.34855 -59.88940 7569 ft 277 kts
2026-04-21 10:06 -3.32947 -59.88773 7348 ft 274 kts
2026-04-21 10:06 -3.31023 -59.88606 7129 ft 275 kts
2026-04-21 10:07 -3.29138 -59.88441 6903 ft 277 kts
2026-04-21 10:07 -3.27222 -59.88274 6668 ft 275 kts
2026-04-21 10:07 -3.25320 -59.88108 6444 ft 274 kts
2026-04-21 10:07 -3.23399 -59.87941 6190 ft 273 kts
2026-04-21 10:08 -3.21514 -59.87776 5949 ft 271 kts
2026-04-21 10:08 -3.19663 -59.87616 5722 ft 270 kts
2026-04-21 10:08 -3.17795 -59.87453 5480 ft 269 kts
2026-04-21 10:08 -3.15909 -59.87288 5228 ft 268 kts
2026-04-21 10:09 -3.14088 -59.87130 5025 ft 263 kts
2026-04-21 10:09 -3.12322 -59.87074 4937 ft 245 kts
2026-04-21 10:09 -3.10672 -59.87081 4806 ft 229 kts
2026-04-21 10:09 -3.09115 -59.87089 4680 ft 212 kts
2026-04-21 10:10 -3.07714 -59.87092 4533 ft 198 kts
2026-04-21 10:10 -3.06361 -59.87093 4301 ft 189 kts
2026-04-21 10:10 -3.05112 -59.87206 4133 ft 176 kts 339°
2026-04-21 10:10 -3.04198 -59.87971 3785 ft 174 kts 300°
2026-04-21 10:11 -3.03923 -59.89129 3409 ft 174 kts 270°
2026-04-21 10:11 -3.03908 -59.90334 3078 ft 173 kts 270°
2026-04-21 10:11 -3.03899 -59.91536 2729 ft 173 kts 270°
2026-04-21 10:11 -3.03893 -59.92732 2427 ft 171 kts 270°
2026-04-21 10:12 -3.03888 -59.93902 2200 ft 165 kts 270°
2026-04-21 10:12 -3.03885 -59.95016 1990 ft 157 kts 271°
2026-04-21 10:12 -3.03881 -59.96106 1787 ft 157 kts 270°
2026-04-21 10:12 -3.03878 -59.97182 1617 ft 151 kts 270°
2026-04-21 10:13 -3.03875 -59.98207 1363 ft 143 kts 270°
2026-04-21 10:13 -3.03873 -59.99196 1174 ft 142 kts 270°
2026-04-21 10:13 -3.03871 -60.00189 1009 ft 144 kts 270°
2026-04-21 10:13 -3.03868 -60.01173 835 ft 141 kts 271°
2026-04-21 10:14 -3.03866 -60.02147 646 ft 138 kts 271°
2026-04-21 10:14 -3.03866 -60.03100 457 ft 136 kts 271°
2026-04-21 10:14 -3.03864 -60.04044 270 ft 135 kts 271°
2026-04-21 10:14 -3.03857 -60.04881 267 ft 96 kts 268°
2026-04-21 10:15 -3.03858 -60.05363 266 ft 57 kts 270°
2026-04-21 10:15 -3.03857 -60.05737 267 ft 51 kts 270°
2026-04-21 10:15 -3.03858 -60.06056 268 ft 31 kts 270°
2026-04-21 10:15 -3.03775 -60.06179 268 ft 23 kts
2026-04-21 10:16 -3.03687 -60.06068 267 ft 22 kts 89°
2026-04-21 10:16 -3.03692 -60.05915 267 ft 22 kts 90°
2026-04-21 10:16 -3.03691 -60.05767 267 ft 21 kts 89°
2026-04-21 10:16 -3.03690 -60.05623 267 ft 20 kts 90°
2026-04-21 10:17 -3.03690 -60.05484 267 ft 20 kts 87°
2026-04-21 10:17 -3.03671 -60.05349 267 ft 20 kts 78°
2026-04-21 10:17 -3.03632 -60.05196 267 ft 25 kts 75°
2026-04-21 10:17 -3.03587 -60.05026 267 ft 25 kts 72°
2026-04-21 10:18 -3.03494 -60.04889 267 ft 23 kts 39°
2026-04-21 10:18 -3.03392 -60.04806 267 ft 16 kts 54°
2026-04-21 10:18 -3.03355 -60.04707 267 ft 15 kts 83°
2026-04-21 10:18 -3.03355 -60.04622 267 ft 8 kts 92°
2026-04-21 10:19 -3.03344 -60.04573 267 ft 6 kts 30°
2026-04-21 10:19 -3.03302 -60.04580 267 ft 6 kts 354°
2026-04-21 10:19 -3.03278 -60.04581 267 ft 2 kts 357°
2026-04-21 10:19 -3.03271 -60.04581 267 ft 0 kts 356°